When you browse on this site, cookies collect data to enhance your experience and personalize the content and advertising you see.
Visit our Privacy Policy to learn more. By continuing to use the site, you agree to this use of cookies and data.
  • In Romania
  • List of Countries
  • For 7 days
  • Water Temperature
  • Weather Map
  • Weather Widgets
  • user-avatar
    Login

    Hourly Weather Brecon

    Today, 11 December, Wednesday

    Time Temperature Precipitation Wind Pressure Humidity
    00:00 +3°C° 0 mm 5 mps 740 mmHg 85%
    01:00 +3°C° 0 mm 5 mps 739 mmHg 85%
    02:00 +3°C° 0 mm 5 mps 739 mmHg 85%
    03:00 +3°C° 0 mm 4 mps 739 mmHg 86%
    04:00 +3°C° 0.1 mm 4 mps 738 mmHg 86%
    05:00 +2°C° 0.1 mm 5 mps 738 mmHg 87%
    06:00 +2°C° 0 mm 5 mps 738 mmHg 87%
    07:00 +2°C° 0.2 mm 5 mps 737 mmHg 87%
    08:00 +2°C° 0.2 mm 6 mps 736 mmHg 86%
    09:00 +3°C° 0.2 mm 6 mps 736 mmHg 86%
    10:00 +3°C° 1 mm 6 mps 735 mmHg 88%
    11:00 +3°C° 1 mm 6 mps 735 mmHg 90%
    12:00 +3°C° 1 mm 6 mps 734 mmHg 92%
    13:00 +3°C° 0.5 mm 6 mps 734 mmHg 89%
    14:00 +3°C° 0.5 mm 6 mps 734 mmHg 85%
    15:00 +3°C° 0.5 mm 6 mps 734 mmHg 82%
    16:00 +2°C° 0 mm 6 mps 735 mmHg 83%
    17:00 +1°C° 0 mm 5 mps 735 mmHg 84%
    18:00 0°C° 0 mm 5 mps 735 mmHg 85%
    19:00 0°C° 0 mm 5 mps 736 mmHg 85%
    20:00 0°C° 0 mm 4 mps 736 mmHg 86%
    21:00 0°C° 0 mm 4 mps 737 mmHg 86%
    22:00 0°C° 0 mm 4 mps 736 mmHg 86%
    23:00 0°C° 0 mm 4 mps 736 mmHg 86%

    Tomorrow, 12 December, Thursday

    Time Temperature Precipitation Wind Pressure Humidity
    00:00 0°C° 0 mm 4 mps 736 mmHg 86%
    01:00 0°C° 0 mm 4 mps 736 mmHg 85%
    02:00 0°C° 0 mm 4 mps 735 mmHg 85%
    03:00 0°C° 0 mm 4 mps 734 mmHg 85%
    04:00 +1°C° 0 mm 4 mps 733 mmHg 87%
    05:00 +1°C° 0 mm 5 mps 732 mmHg 89%
    06:00 +2°C° 0 mm 6 mps 731 mmHg 91%
    07:00 +3°C° 0.7 mm 7 mps 729 mmHg 92%
    08:00 +3°C° 0.7 mm 7 mps 727 mmHg 93%
    09:00 +4°C° 0.7 mm 8 mps 726 mmHg 95%
    10:00 +4°C° 2.4 mm 7 mps 725 mmHg 95%
    11:00 +5°C° 2.4 mm 7 mps 723 mmHg 96%
    12:00 +5°C° 2.4 mm 6 mps 722 mmHg 97%
    13:00 +5°C° 0.3 mm 6 mps 721 mmHg 95%
    14:00 +5°C° 0.3 mm 6 mps 720 mmHg 93%
    15:00 +5°C° 0.3 mm 6 mps 719 mmHg 91%
    16:00 +5°C° 0.2 mm 6 mps 719 mmHg 91%
    17:00 +5°C° 0.2 mm 7 mps 719 mmHg 91%
    18:00 +4°C° 0.2 mm 7 mps 718 mmHg 91%
    19:00 +4°C° 1 mm 7 mps 718 mmHg 91%
    20:00 +4°C° 1 mm 8 mps 717 mmHg 92%
    21:00 +4°C° 1 mm 8 mps 717 mmHg 92%
    22:00 +2°C° 0.4 mm 9 mps 717 mmHg 89%
    23:00 +2°C° 0.4 mm 10 mps 716 mmHg 87%

    Day after tomorrow, 13 December, Friday

    Time Temperature Precipitation Wind Pressure Humidity
    00:00 +1°C° 0.4 mm 11 mps 716 mmHg 84%
    01:00 +1°C° 0.3 mm 11 mps 716 mmHg 84%
    02:00 0°C° 0.3 mm 12 mps 716 mmHg 85%
    03:00 0°C° 0.3 mm 13 mps 716 mmHg 85%
    04:00 0°C° 0.1 mm 12 mps 717 mmHg 86%
    05:00 0°C° 0.1 mm 12 mps 718 mmHg 87%
    06:00 0°C° 0.1 mm 12 mps 718 mmHg 88%
    07:00 +1°C° 0.1 mm 11 mps 719 mmHg 88%
    08:00 +1°C° 0.1 mm 11 mps 719 mmHg 88%
    09:00 +2°C° 0.1 mm 10 mps 720 mmHg 88%
    10:00 +2°C° 0 mm 11 mps 721 mmHg 84%
    11:00 +3°C° 0 mm 11 mps 722 mmHg 80%
    12:00 +4°C° 0 mm 12 mps 723 mmHg 76%
    13:00 +4°C° 0 mm 11 mps 724 mmHg 78%
    14:00 +3°C° 0 mm 10 mps 725 mmHg 80%
    15:00 +3°C° 0 mm 10 mps 726 mmHg 81%
    16:00 +3°C° 0 mm 9 mps 726 mmHg 81%
    17:00 +2°C° 0 mm 9 mps 726 mmHg 81%
    18:00 +2°C° 0 mm 8 mps 726 mmHg 80%
    19:00 +2°C° 0.6 mm 8 mps 725 mmHg 85%
    20:00 +3°C° 0.6 mm 7 mps 724 mmHg 90%
    21:00 +3°C° 0.6 mm 7 mps 723 mmHg 95%
    22:00 +3°C° 0.4 mm 9 mps 722 mmHg 89%
    23:00 +3°C° 0.4 mm 12 mps 722 mmHg 83%

    14 December, Saturday

    Time Temperature Precipitation Wind Pressure Humidity
    00:00 +4°C° 0.4 mm 14 mps 721 mmHg 76%
    01:00 +2°C° 0.1 mm 15 mps 722 mmHg 75%
    02:00 +2°C° 0.1 mm 15 mps 722 mmHg 75%
    03:00 +1°C° 0.1 mm 15 mps 723 mmHg 74%
    04:00 +1°C° 0 mm 14 mps 724 mmHg 72%
    05:00 0°C° 0 mm 13 mps 725 mmHg 69%
    06:00 0°C° 0 mm 13 mps 726 mmHg 67%
    07:00 +1°C° 0 mm 11 mps 726 mmHg 68%
    08:00 +1°C° 0 mm 10 mps 726 mmHg 69%
    09:00 0°C° 0 mm 9 mps 727 mmHg 69%
    10:00 +1°C° 0.1 mm 9 mps 727 mmHg 70%
    11:00 +1°C° 0.1 mm 9 mps 727 mmHg 70%
    12:00 +2°C° 0.1 mm 9 mps 728 mmHg 70%
    13:00 +1°C° 0.1 mm 9 mps 728 mmHg 69%
    14:00 +1°C° 0.1 mm 9 mps 728 mmHg 67%
    15:00 +1°C° 0.1 mm 9 mps 729 mmHg 65%
    16:00 0°C° 0 mm 8 mps 729 mmHg 66%
    17:00 -1°C° 0 mm 7 mps 729 mmHg 66%
    18:00 -2°C° 0 mm 6 mps 730 mmHg 66%
    19:00 -1°C° 0 mm 5 mps 729 mmHg 68%
    20:00 -1°C° 0 mm 5 mps 729 mmHg 70%
    21:00 -1°C° 0 mm 4 mps 729 mmHg 72%
    22:00 -1°C° 0.8 mm 6 mps 727 mmHg 79%
    23:00 -1°C° 0.8 mm 7 mps 726 mmHg 85%

    15 December, Sunday

    Time Temperature Precipitation Wind Pressure Humidity
    00:00 -1°C° 0.8 mm 9 mps 724 mmHg 92%
    01:00 0°C° 1.3 mm 10 mps 723 mmHg 88%
    02:00 0°C° 1.3 mm 10 mps 723 mmHg 84%
    03:00 -1°C° 1.3 mm 11 mps 722 mmHg 80%
    04:00 -1°C° 0.3 mm 11 mps 723 mmHg 81%
    05:00 -2°C° 0.3 mm 11 mps 725 mmHg 82%
    06:00 -2°C° 0.3 mm 10 mps 726 mmHg 84%
    07:00 -1°C° 0.1 mm 9 mps 728 mmHg 83%
    08:00 -2°C° 0.1 mm 7 mps 730 mmHg 82%
    09:00 -1°C° 0.1 mm 5 mps 732 mmHg 81%
    10:00 -1°C° 0.2 mm 6 mps 732 mmHg 80%
    11:00 0°C° 0.2 mm 7 mps 732 mmHg 78%
    12:00 +2°C° 0.2 mm 7 mps 733 mmHg 77%
    13:00 +1°C° 0.6 mm 8 mps 732 mmHg 83%
    14:00 0°C° 0.6 mm 8 mps 732 mmHg 88%
    15:00 0°C° 0.6 mm 9 mps 732 mmHg 94%
    16:00 0°C° 0.4 mm 9 mps 732 mmHg 90%
    17:00 0°C° 0.4 mm 8 mps 732 mmHg 87%
    18:00 +1°C° 0.4 mm 8 mps 732 mmHg 83%
    19:00 0°C° 0.3 mm 8 mps 732 mmHg 83%
    20:00 0°C° 0.3 mm 7 mps 733 mmHg 82%
    21:00 0°C° 0.3 mm 7 mps 733 mmHg 82%
    22:00 0°C° 0.3 mm 7 mps 733 mmHg 82%
    23:00 +1°C° 0.3 mm 8 mps 733 mmHg 81%

    16 December, Monday

    Time Temperature Precipitation Wind Pressure Humidity
    00:00 +1°C° 0.3 mm 8 mps 733 mmHg 81%
    01:00 +1°C° 0.1 mm 8 mps 733 mmHg 81%
    02:00 +2°C° 0.1 mm 7 mps 733 mmHg 82%
    03:00 +2°C° 0.1 mm 7 mps 732 mmHg 82%
    04:00 +2°C° 0.1 mm 7 mps 732 mmHg 82%
    05:00 +2°C° 0.1 mm 7 mps 732 mmHg 82%
    06:00 +2°C° 0.1 mm 7 mps 732 mmHg 82%
    07:00 +2°C° 0.1 mm 6 mps 732 mmHg 82%
    08:00 +2°C° 0.1 mm 6 mps 732 mmHg 81%
    09:00 +2°C° 0.1 mm 6 mps 732 mmHg 81%
    10:00 +2°C° 0.1 mm 7 mps 732 mmHg 81%
    11:00 +3°C° 0.1 mm 7 mps 732 mmHg 81%
    12:00 +4°C° 0.1 mm 8 mps 732 mmHg 81%
    13:00 +3°C° 0.1 mm 6 mps 732 mmHg 83%
    14:00 +3°C° 0.1 mm 5 mps 732 mmHg 84%
    15:00 +3°C° 0.1 mm 4 mps 732 mmHg 86%
    16:00 +2°C° 0 mm 3 mps 732 mmHg 86%
    17:00 +1°C° 0 mm 3 mps 733 mmHg 86%
    18:00 +1°C° 0 mm 2 mps 733 mmHg 86%
    19:00 +1°C° 0 mm 2 mps 733 mmHg 85%
    20:00 +2°C° 0 mm 1 mps 734 mmHg 84%
    21:00 +2°C° 0 mm 1 mps 734 mmHg 83%
    22:00 +2°C° 0 mm 1 mps 734 mmHg 83%
    23:00 +2°C° 0 mm 1 mps 734 mmHg 83%
    Show more